www.pogodaiklimat.ru
ПОГОДА в Малайбалае

Архив погоды в Малайбалае (Филиппины)

Время
(UTC), дата
21 21.02
00 22.02
03 22.02
06 22.02
09 22.02
12 22.02
15 22.02
18 22.02
21 22.02
00 23.02
03 23.02
06 23.02
09 23.02
12 23.02
15 23.02
18 23.02
21 23.02
00 24.02
03 24.02
06 24.02
09 24.02
12 24.02
15 24.02
18 24.02
21 24.02
00 25.02
03 25.02
06 25.02
09 25.02
12 25.02
15 25.02
18 25.02
21 25.02
00 26.02
03 26.02
06 26.02
09 26.02
12 26.02
15 26.02
18 26.02
21 26.02
00 27.02
03 27.02
06 27.02
09 27.02
12 27.02
15 27.02
18 27.02
21 27.02
00 28.02
03 28.02
06 28.02
09 28.02
12 28.02
15 28.02
Ветер
(напр.,м/с)
Видим. Явления Облачность Т
(С)
Тd
(С)
f
(%)
Тe
(С)
Тes
(С)
Комфортность P
(гПа)
Po
(гПа)
Тmin
(С)
Tmax
(С)
R
(мм)
R24
(мм)
S
(см)
штиль 0 12 км в посл. час ливневой дождь 10/5 450 м [Cb cap Ac As] +22.0 +21.1 95 +28 +28 душно 1012.2 944.8 0.6
штиль 0 20 км {ливн. дождь, туман} 9/4 450 м [Cb calv Ac cuf Cs] +23.6 +21.3 87 +30 +33 очень душно 1013.6 946.1 +20.8 9 9.0
штиль 0 15 км слаб. ливневой дождь 10/4 450 м [Cb cap Ac As Cs] +26.8 +22.2 76 +35 +43 очень душно 1013.1 946.0 0.0
З 2 15 км {ливн. дождь} 10/4 450 м [Cb cap Ac As Cs] +27.6 +23.4 78 +37 +41 очень душно 1011.0 944.1 1
штиль 0 10 км ливневой дождь 10/5 450 м [Cb cap Ac As] +24.4 +22.5 89 +32 +32 очень душно 1012.2 944.8 16
штиль 0 12 км в посл. час ливневой дождь 10/4 450 м [Cb cap Ac As Cs] +22.8 +22.2 96 +31 +31 очень душно 1013.7 946.2 +29.0 21
штиль 0 8000 м слаб. ливневой дождь 10/5 450 м [Cb cap Ac As] +22.4 +21.8 96 +30 +30 очень душно 1013.9 946.6 0.0
штиль 0 12 км {ливн. дождь} 10/4 450 м [Cb cap Ac As Cs] +22.0 +21.3 96 +29 +29 очень душно 1012.2 945.0 0.0
штиль 0 15 км 10/4 450 м [Cu med, cong Ac As Cs] +21.4 +20.8 96 +27 +27 душно 1012.9 945.0
штиль 0 20 км 8/4 450 м [Cu med, cong Ac cuf Cs] +23.8 +21.2 85 +30 +34 очень душно 1014.0 946.4 +20.2 22 22.0
штиль 0 10 км в посл. час ливневой дождь 10/4 450 м [Cb cap Ac As Cs] +24.6 +21.7 84 +31 +39 очень душно 1014.0 946.4 2
штиль 0 15 км {ливн. дождь, дождь} 10/4 450 м [Cb cap Ac As Cs] +27.8 +22.6 73 +37 +42 очень душно 1012.3 945.1 2
штиль 0 15 км 10/5 450 м [Cb cap Ac As] +25.0 +22.2 84 +32 +32 очень душно 1012.6 945.1
штиль 0 15 км 9/4 450 м [Cb cap Ac As] +23.5 +21.4 88 +30 +30 очень душно 1013.5 946.0 +28.5
штиль 0 16 км 10/4 450 м [Cu med, cong Ac As Cs] +22.6 +21.8 95 +30 +30 очень душно 1014.4 946.8
штиль 0 18 км 6/4 450 м [Cu hum Cs] +22.0 +21.4 96 +29 +29 очень душно 1012.4 945.2
штиль 0 18 км 5/3 450 м [Cu hum Cs] +21.2 +20.6 96 +26 +26 душно 1013.0 945.5
штиль 0 20 км мгла 3/3 450 м [Cu hum] +22.2 +20.4 90 +29 +35 очень душно 1014.2 946.2 +20.0 2 2.0
штиль 0 20 км мгла 6/3 450 м [Cu med, cong Ac cuf] +29.5 +22.7 67 +39 +52 опасность солнечного удара 1012.6 945.8
штиль 0 20 км осадки на расстоянии {мгла} 8/4 450 м [Cb cap Ac As] +32.0 +23.2 60 +43 +48 очень душно 1009.6 943.2
штиль 0 20 км мгла {ливн. дождь} 9/4 450 м [Cu med, cong Ac As] +28.0 +23.2 75 +38 +38 очень душно 1010.9 943.8 0.1
штиль 0 18 км {ливн. дождь, мгла} 6/3 450 м [Cu med, cong Ac cuf] +24.0 +21.9 88 +31 +31 очень душно 1013.5 946.0 +33.0 0.1
штиль 0 18 км 4/1 450 м [Cu hum Cs] +21.8 +20.9 95 +28 +28 душно 1013.4 946.3
штиль 0 18 км 4/1 450 м [Cu hum Ci fib] +20.2 +19.3 95 +24 +24 комфорт 1012.0 945.2
штиль 0 18 км 5/3 450 м [Cu hum Cs] +18.8 +17.9 95 +20 +20 1012.5 945.0
штиль 0 20 км мгла 1/1 450 м [Cu hum] +21.0 +19.5 91 +25 +33 комфорт 1014.0 946.0 +17.0 0.1 0.1
штиль 0 20 км мгла 8/3 450 м [Cu med, cong Ac cuf] +28.5 +22.3 69 +37 +47 очень душно 1012.2 945.2
штиль 0 20 км мгла 8/3 450 м [Cu med, cong Ac cuf] +28.0 +22.5 72 +37 +43 очень душно 1010.1 943.0
штиль 0 20 км мгла 4/3 450 м [Cu med, cong Ci fib] +25.5 +22.0 81 +33 +33 очень душно 1010.1 942.8
штиль 0 15 км {мгла} 3/3 450 м [Cu med, cong] +24.5 +22.0 86 +32 +32 очень душно 1012.2 944.5 +29.5
штиль 0 18 км 4/1 450 м [Cu hum Ci fib] +22.4 +21.8 96 +30 +30 очень душно 1012.2 945.4
штиль 0 18 км 3/1 450 м [Cu hum Ci fib] +20.5 +19.8 96 +24 +24 комфорт 1012.2 945.0
штиль 0 18 км 4/1 450 м [Cu hum Cs] +19.0 +18.3 96 +21 +21 комфорт 1012.7 945.0
ЮВ 1 20 км 4/1 450 м [Cu hum Ci fib] +22.6 +18.8 79 +28 +35 душно 1013.9 946.3 +17.5
СЗ 1 20 км 4/3 450 м [Cu hum Ci fib] +29.8 +19.1 53 +35 +51 опасность солнечного удара 1012.0 945.2
СВ 1 20 км 6/3 450 м [Cu med, cong Ac und Cs] +30.4 +19.9 53 +37 +45 очень душно 1009.9 943.0
В 1 20 км 9/3 450 м [Cb cap Ac As Cs] +27.8 +21.1 67 +35 +35 очень душно 1010.3 943.0
штиль 0 18 км 8/1 450 м [Cu med, cong Cs] +25.2 +20.4 75 +31 +31 очень душно 1011.4 944.0 +32.0
штиль 0 18 км 9/3 450 м [Cu med, cong Cs] +23.0 +21.0 89 +31 +31 очень душно 1011.6 944.8
штиль 0 18 км 8/3 450 м [Cu hum Cs] +21.5 +20.5 94 +27 +27 душно 1010.7 944.0
штиль 0 18 км 9/4 450 м [Cu hum Cs] +21.2 +20.3 95 +26 +26 душно 1011.4 944.2
штиль 0 20 км 9/4 450 м [Cb calv Ac trans Cs] +23.4 +19.9 81 +30 +34 очень душно 1012.2 945.0 +20.5
В 2 20 км 9/4 450 м [Cb cap Ac As Cs] +28.4 +21.6 67 +36 +43 очень душно 1012.0 945.0
СЗ 4 20 км 9/4 450 м [Cb cap Ac As Cs] +27.8 +21.1 67 +35 +38 очень душно 1011.3 944.1
СВ 1 20 км 8/3 450 м [Cb cap Ac As Cs] +27.2 +18.5 59 +32 +32 очень душно 1011.3 944.1
штиль 0 18 км 8/3 450 м [Cu med, cong Cs] +24.8 +19.6 73 +30 +30 душно 1012.2 945.0 +29.5
штиль 0 18 км 6/3 450 м [Cu hum Cs] +22.4 +18.3 78 +28 +28 душно 1012.9 945.8
штиль 0 18 км 5/1 450 м [Cu hum Cs] +20.5 +18.2 87 +24 +24 комфорт 1011.7 944.5
штиль 0 20 км 4/1 450 м [Cu hum Cs] +20.5 +17.9 85 +24 +24 комфорт 1011.0 943.9
СЗ 2 20 км 6/3 450 м [Cu med, cong Ac trans Cs] +24.6 +18.6 69 +29 +33 душно 1012.2 945.0 +19.5
СЗ 1 20 км 8/4 450 м [Cu med, cong Ac cuf Cs] +28.8 +22.2 68 +38 +47 очень душно 1011.8 944.8
С 4 20 км 9/4 450 м [Cb cap Ac As Cs] +29.2 +22.8 68 +39 +42 очень душно 1010.1 943.0
С 4 20 км 10/4 450 м [Cb cap Ac As Cs] +25.8 +21.9 79 +33 +33 очень душно 1010.6 943.3
штиль 0 16 км 8/4 450 м [Cb cap Cs] +24.5 +21.8 85 +31 +31 очень душно 1012.0 944.8 +30.5
штиль 0 16 км 9/4 450 м [Cu med, cong Ac As Cs] +23.5 +21.4 88 +30 +30 очень душно 1012.0 945.2
Местоположение метеостанции Малайбалай (Филиппины): широта 8.15 долгота 125.08 высота над уровнем моря 627 м.
В архиве по умолчанию представлена погода в Малайбалае за последнюю неделю. Архивные данные за месяц целиком и за предыдущие месяцы, начиная с января 2011 года, Вы можете получить, выбрав интересующий диапазон дат из раскрывающегося списка и нажав кнопку "Найти!".
*Определитесь, кто Вы:
Внимание! Время в таблицах - всемирное. Для получения местного времени необходимо прибавить поправку, которая равна 8 ч.
Некоторые строки с данными для отдельных станций могут быть выделены курсивом. Это означает, что фактические данные отсутствуют по различным причинам, а приведенные значения являются расчетными модельными данными для данного пункта наблюдений.
Смотрите также архив погоды в соседних городах и на ближайших метеорологических станциях:
Партнеры нашего сайта:      
Пояснения к столбцам:
  • Ветер - указаны скорость ветра в м/с - средняя за 10 мин, порывы в срок и между сроками (в фигурных скобках) и направление, откуда дует ветер: С - северный,
  • СВ - северо-восточный, В - восточный, ЮВ - юго-восточный, Ю - южный, ЮЗ - юго-западный, З - западный, СЗ - северо-западный.
  • Видимость - горизонтальная дальность видимости в метрах или километрах. При видимости от 1 до 10 км при отсутствии осадков обычно наблюдается дымка, при ухудшении видимости до 1 км и менее - туман. В сухую погоду видимость может ухудшаться дымом, пылью или мглою.
  • Явления - указаны атмосферные явления, наблюдавшиеся в срок или в последний час перед сроком; фигурными скобками обозначены явления, наблюдавшиеся между сроками (за 1-3 часа до срока); квадратными скобками обозначены град или гололедные отложения с указанием их диаметра в мм.
  • Облачность - указаны через наклонную черту общая и нижняя облачность в баллах и высота нижней границы облаков в метрах; квадратными скобками обозначены формы облаков: Ci - перистые, Cs - перисто-слоистые, Cc - перисто-кучевые, Ac - высококучевые, As - высокослоистые, Sc - слоисто-кучевые, Ns - слоисто-дождевые, Cu - кучевые, Cb - кучево-дождевые. Подробнее классификацию облаков см. в Атласе облаков (PDF).
  • T - Температура воздуха - температура, измеренная на высоте 2 м над землей.
  • Td - Температура точки росы - температура, при понижении до которой содержащийся в воздухе водяной пар достигнет насыщения.
  • f - Относительная влажность воздуха - влажноcть воздуха, измеренная на высоте 2 м над землей.
  • Te - Эффективная температура - температура, которую ощущает одетый по сезону человек в тени. Характеристика душности погоды. При расчете учитывается влияние влажности воздуха и скорости ветра на теплоощущения человека.
  • Tes - Эффективная температура на солнце - температура, которую ощущает человек, с поправкой на солнечный нагрев. Характеристика знойности погоды. Зависит от высоты солнца над горизонтом, облачности и скорости ветра. Ночью, в пасмурную погоду, а также при ветре 12 м/с и более поправка равна нулю.
  • P - Атмосферное давление - приведенное к уровню моря атмосферное давление.
  • Po - Атмосферное давление - измеренное на уровне метеостанции атмосферное давление.
  • Tmin - Минимальная температура - минимум температуры воздуха на высоте 2 м над землей.
  • Tmax - Максимальная температура - максимум температуры воздуха на высоте 2 м над землей.
  • R - Количество осадков - Количество выпавших осадков за период времени, мм. При наведении курсора мыши на число - период времени, за который выпало указанное количество осадков.
  • R24 - Количество осадков - Количество выпавших осадков за 24 часа, мм.
  • S - Снежный покров - Высота снежного покрова, см. При наведении курсора мыши на число - состояние снежного покрова и степень покрытия местности в баллах.